Weather in Verkhnyaya Vidlitsa

Russia / Republic of Karelia     61°11′24″N   32°28′23″E
temp.,
°C
wind,
m/s
gust,
m/s
humid.,
%
clouds,
%
prec.,
mm/h
press.,
hPa
HPBL,
m
15 august, mon
mon1500:00+15e11815 0.0 102112
03:00+14ene22855 0.0 102116
06:00+14e22845 0.0 102128
09:00+21ese23605 0.0 1022326
12:00+26sse23475 0.0 10211222
15:00+28ssw24425 0.0 10201860
18:00+27sw12495 0.0 1020465
21:00+21ene116828 0.0 102011
16 august, tue
tue1600:00+20ese257194 0.0 1020108
03:00+19se267570 0.0 1021139
06:00+18se258164 0.0 102198
09:00+23sse246210 0.0 1021300
12:00+27s35436 0.0 10211181
15:00+28ssw46417 0.0 10201435
18:00+27sse25483 0.0 1020447
21:00+21ese24662 0.0 102055
17 august, wed
wed1700:00+19ese26735 0.0 1020103
03:00+18se23745 0.0 102062
06:00+17se268146 0.0 1020143
09:00+22s366253 0.0 1020390
12:00+25ssw355143 0.0 1020824
15:00+26ssw354865 0.0 1020826
18:00+25sw245215 0.0 1019431
21:00+20sse227287 0.0 101916
18 august, thu
thu1800:00+18sse118252 0.0 101914
03:00+17se228675 0.0 101924
06:00+17se22834 0.0 102045
09:00+23sse235842 0.0 1020363
12:00+27ssw234539 0.0 1020980
15:00+28sw234045 0.0 10201216
18:00+27wsw114884 0.0 1020242
21:00+21ne11636 0.0 102011
19 august, fri
fri1900:00+19ene23716 0.0 102146
03:00+18e22785 0.0 102126
06:00+18ese24865 0.0 102179
09:00+24se23627 0.0 1022343
12:00+28sse234724 0.0 10221039
15:00+29s234344 0.0 10211562
18:00+28sw12495 0.0 1021331
21:00+22ene11706 0.0 102212